This is the latest recevied weather packets stored in our database for station/object EA3ANS-1. If no packets are shown the sender has not sent any weather packets the latest 10 day(s).
| Time | Temp. | Humidity | Pressure | Rain* | Wind** | Luminosity | Snow |
|---|---|---|---|---|---|---|---|
| 1777518634 | 14.44° C | - | 1014.2 hPa | 0 mm | 0.89 m/s, 316° | - | - |
| 1777518032 | 14.44° C | - | 1014 hPa | 0 mm | 0.89 m/s, 318° | - | - |
| 1777517434 | 15° C | - | 1014.1 hPa | 0 mm | 0 m/s | - | - |
| 1777516836 | 14.44° C | - | 1014.2 hPa | 0 mm | 1.34 m/s, 342° | - | - |
| 1777516237 | 15° C | - | 1014 hPa | 0 mm | 0.89 m/s, 312° | - | - |
| 1777515633 | 15° C | - | 1014 hPa | 0 mm | 0 m/s | - | - |
| 1777515035 | 15° C | - | 1013.9 hPa | 0 mm | 0 m/s | - | - |
| 1777514438 | 15° C | - | 1014 hPa | 0 mm | 0 m/s | - | - |
| 1777513841 | 15° C | - | 1014 hPa | 0 mm | 0 m/s | - | - |
| 1777513243 | 15° C | - | 1014.1 hPa | 0 mm | 0 m/s | - | - |
| 1777512643 | 15° C | - | 1014 hPa | 0 mm | 0 m/s | - | - |
| 1777512045 | 15° C | - | 1014.1 hPa | 0 mm | 1.34 m/s, 60° | - | - |
| 1777511433 | 15.56° C | - | 1014.3 hPa | 0 mm | 0 m/s | - | - |
| 1777510833 | 15.56° C | - | 1014.1 hPa | 0 mm | 0 m/s | - | - |
| 1777510236 | 15.56° C | - | 1014.2 hPa | 0 mm | 0 m/s | - | - |
| 1777509633 | 16.11° C | - | 1014.1 hPa | 0 mm | 0 m/s | - | - |
| 1777509034 | 16.11° C | - | 1014.2 hPa | 0 mm | 0 m/s | - | - |
| 1777508436 | 16.11° C | - | 1014.3 hPa | 0 mm | 0 m/s | - | - |
| 1777507836 | 16.67° C | - | 1014.4 hPa | 0 mm | 0 m/s | - | - |
| 1777507233 | 16.11° C | - | 1014.2 hPa | 0 mm | 0 m/s | - | - |
| 1777506636 | 16.67° C | - | 1014.2 hPa | 0 mm | 0.89 m/s, 48° | - | - |
| 1777506038 | 16.67° C | - | 1014.2 hPa | 0 mm | 0.45 m/s, 34° | - | - |
| 1777505441 | 16.67° C | - | 1014 hPa | 0 mm | 1.79 m/s, 68° | - | - |
| 1777504843 | 17.22° C | - | 1014.3 hPa | 0 mm | 0 m/s | - | - |
| 1777504246 | 17.22° C | - | 1014.1 hPa | 0 mm | 0 m/s | - | - |
* Rain latest hour (hover to see other rain measurements)
** Current wind speed in m/s (hover to see current wind gust speed)